Location: PSU-Greenbush Astrophysical Observatory
(37.5140°N, 94.9880°W)
Time: 18:22:30
(UTC-05:00)

CUTE 1.7 + AOD 2 - Pass Details

Date: 27 February 2020
Orbit: 593 x 612 km, 97.6° (Epoch: 01 April)

Event Time Altitude Azimuth Distance (km) Brightness Sun altitude
Rises 05:58:16 0° 5° (N) 2,840 ? -11.9°
Reaches altitude 10° 06:00:30 10° 359° (N) 1,933 ? -11.5°
Maximum altitude 06:04:31 47° 286° (WNW) 790 ? -10.7°
Drops below altitude 10° 06:08:31 10° 213° (SSW) 1,918 ? -9.9°
Sets 06:10:43 0° 207° (SSW) 2,816 ? -9.5°
